Location: Gwatt
(46.7204°N, 7.6223°E)
Time: 00:26:00
(UTC+00:00)

Vanguard 3 - Pass Details

Date: 28 January 2021
Orbit: 508 x 3262 km, 33.4° (Epoch: 03 March)

Event Time Altitude Azimuth Distance (km) Brightness Sun altitude
Exits shadow 05:49:18 - 251° (WSW) 3,424 9.8 -12.0°
Reaches altitude 10° 05:49:52 10° 248° (WSW) 3,301 9.8 -11.9°
Maximum altitude 05:57:13 31° 190° (S) 2,811 9.9 -10.6°
Drops below altitude 10° 06:08:43 10° 137° (SE) 5,230 12.3 -8.7°
Sets 06:14:18 0° 129° (SE) 6,643 13.3 -7.8°
